JBU2833 KORH-KRSW

Flight info

Callsign JBU2833
Flight time 2h 50m
Altitude 38000
Route PWL BIZEX Q75 SLOJO Q103 CYNTA SHFTY6
Aircraft A320/M-SDE3FGHIRWY/LB1

Departure

Time 2026-04-22 14:25
Airport Worcester Regional Airport (KORH)

Arrival

Time 2026-04-22 17:16
Airport Southwest Florida International Airport (KRSW)
Time Latitude Longitude Altitude Speed Heading
2026-04-22 14:04 42.26928 -71.87125 1002 ft 0 kts 48°
2026-04-22 14:12 42.26927 -71.87125 1002 ft 0 kts 48°
2026-04-22 14:15 42.26924 -71.87131 1002 ft 2 kts 48°
2026-04-22 14:15 42.26911 -71.87150 1002 ft 2 kts 48°
2026-04-22 14:15 42.26900 -71.87167 1003 ft 3 kts 61°
2026-04-22 14:15 42.26894 -71.87191 1003 ft 3 kts 102°
2026-04-22 14:16 42.26901 -71.87214 1004 ft 3 kts 133°
2026-04-22 14:16 42.26911 -71.87227 1004 ft 1 kts 139°
2026-04-22 14:16 42.26913 -71.87230 1005 ft 1 kts 139°
2026-04-22 14:17 42.26914 -71.87230 1005 ft 0 kts 139°
2026-04-22 14:20 42.26908 -71.87223 1004 ft 1 kts 139°
2026-04-22 14:20 42.26888 -71.87199 1003 ft 7 kts 139°
2026-04-22 14:20 42.26838 -71.87141 1002 ft 12 kts 139°
2026-04-22 14:21 42.26729 -71.86962 1003 ft 14 kts 132°
2026-04-22 14:21 42.26654 -71.86873 1004 ft 15 kts 140°
2026-04-22 14:22 42.26505 -71.86695 1004 ft 12 kts 137°
2026-04-22 14:22 42.26519 -71.86596 1002 ft 8 kts 50°
2026-04-22 14:22 42.26523 -71.86589 1001 ft 0 kts 50°
2026-04-22 14:23 42.26536 -71.86570 1001 ft 6 kts 46°
2026-04-22 14:24 42.26577 -71.86518 999 ft 11 kts 34°
2026-04-22 14:24 42.26604 -71.86538 999 ft 5 kts 283°
2026-04-22 14:24 42.26606 -71.86553 1000 ft 0 kts 279°
2026-04-22 14:24 42.26609 -71.86589 1001 ft 22 kts 276°
2026-04-22 14:25 42.26635 -71.87135 1002 ft 93 kts 273°
2026-04-22 14:25 42.26685 -71.88259 999 ft 143 kts 272°
2026-04-22 14:25 42.26725 -71.89684 1398 ft 150 kts 269°
2026-04-22 14:25 42.26801 -71.91092 2094 ft 152 kts 268°
2026-04-22 14:26 42.26887 -71.92556 2538 ft 160 kts 266°
2026-04-22 14:26 42.26809 -71.94066 2898 ft 164 kts 246°
2026-04-22 14:26 42.26387 -71.95565 3171 ft 184 kts 241°
2026-04-22 14:26 42.25838 -71.97262 3372 ft 211 kts 241°
2026-04-22 14:27 42.25195 -71.99190 3807 ft 234 kts 243°
2026-04-22 14:27 42.24550 -72.01219 4768 ft 236 kts 245°
2026-04-22 14:27 42.23919 -72.03281 5666 ft 241 kts 247°
2026-04-22 14:27 42.23288 -72.05414 6498 ft 248 kts 249°
2026-04-22 14:28 42.22652 -72.07606 7278 ft 253 kts 250°
2026-04-22 14:28 42.22004 -72.09838 8087 ft 258 kts 250°
2026-04-22 14:28 42.21345 -72.12102 8929 ft 261 kts 251°
2026-04-22 14:28 42.20676 -72.14400 9761 ft 265 kts 251°
2026-04-22 14:29 42.19993 -72.16742 10392 ft 276 kts 252°
2026-04-22 14:29 42.19266 -72.19254 10608 ft 299 kts 251°
2026-04-22 14:29 42.18483 -72.21954 10903 ft 316 kts 251°
2026-04-22 14:29 42.17669 -72.24742 11516 ft 322 kts 251°
2026-04-22 14:30 42.16836 -72.27568 12199 ft 326 kts 251°
2026-04-22 14:30 42.15994 -72.30427 12878 ft 330 kts 252°
2026-04-22 14:30 42.15142 -72.33321 13567 ft 334 kts 252°
2026-04-22 14:30 42.14280 -72.36243 14234 ft 338 kts 252°
2026-04-22 14:31 42.13409 -72.39195 14858 ft 341 kts 252°
2026-04-22 14:31 42.12829 -72.41163 15258 ft 343 kts 252°
2026-04-22 14:31 42.11948 -72.44159 15869 ft 345 kts 252°
2026-04-22 14:31 42.11057 -72.47179 16463 ft 349 kts 252°
2026-04-22 14:32 42.10158 -72.50226 17066 ft 352 kts 252°
2026-04-22 14:32 42.09249 -72.53294 17672 ft 355 kts 252°
2026-04-22 14:32 42.08331 -72.56395 18283 ft 358 kts 252°
2026-04-22 14:32 42.07404 -72.59524 18864 ft 361 kts 252°
2026-04-22 14:33 42.06466 -72.62675 19443 ft 364 kts 252°
2026-04-22 14:33 42.05520 -72.65845 20045 ft 366 kts 252°
2026-04-22 14:33 42.04574 -72.69028 20669 ft 368 kts 253°
2026-04-22 14:33 42.03624 -72.72229 21255 ft 370 kts 253°
2026-04-22 14:34 42.02665 -72.75450 21820 ft 372 kts 253°
2026-04-22 14:34 42.01699 -72.78686 22363 ft 374 kts 253°
2026-04-22 14:34 42.00728 -72.81941 22891 ft 376 kts 253°
2026-04-22 14:34 41.99750 -72.85208 23416 ft 378 kts 253°
2026-04-22 14:35 41.98762 -72.88499 23899 ft 381 kts 253°
2026-04-22 14:35 41.97766 -72.91804 24306 ft 383 kts 253°
2026-04-22 14:35 41.96761 -72.95131 24708 ft 385 kts 253°
2026-04-22 14:35 41.95752 -72.98478 25100 ft 387 kts 253°
2026-04-22 14:36 41.94741 -73.01840 25482 ft 390 kts 253°
2026-04-22 14:36 41.93723 -73.05223 25861 ft 392 kts 253°
2026-04-22 14:36 41.92697 -73.08630 26237 ft 394 kts 253°
2026-04-22 14:36 41.91663 -73.12052 26593 ft 396 kts 253°
2026-04-22 14:37 41.90624 -73.15486 26944 ft 399 kts 253°
2026-04-22 14:37 41.89575 -73.18939 27317 ft 401 kts 253°
2026-04-22 14:37 41.88515 -73.22417 27678 ft 403 kts 253°
2026-04-22 14:37 41.87447 -73.25908 28040 ft 406 kts 253°
2026-04-22 14:38 41.86376 -73.29411 28405 ft 408 kts 253°
2026-04-22 14:38 41.85297 -73.32945 28761 ft 410 kts 253°
2026-04-22 14:38 41.84216 -73.36490 29109 ft 412 kts 253°
2026-04-22 14:38 41.83131 -73.40048 29434 ft 414 kts 253°
2026-04-22 14:39 41.82033 -73.43629 29758 ft 416 kts 253°
2026-04-22 14:39 41.80928 -73.47219 30148 ft 416 kts 253°
2026-04-22 14:39 41.79784 -73.50777 30582 ft 418 kts 248°
2026-04-22 14:40 41.75917 -73.56753 31393 ft 440 kts 221°
2026-04-22 14:40 41.73180 -73.58687 31788 ft 452 kts 206°
2026-04-22 14:40 41.70081 -73.59657 32144 ft 466 kts 191°
2026-04-22 14:40 41.66819 -73.59671 32507 ft 472 kts 184°
2026-04-22 14:41 41.63533 -73.59521 32899 ft 471 kts 184°
2026-04-22 14:41 41.60259 -73.59368 33312 ft 470 kts 184°
2026-04-22 14:41 41.56991 -73.59220 33728 ft 470 kts 184°
2026-04-22 14:41 41.53724 -73.59079 34141 ft 469 kts 184°
2026-04-22 14:42 41.50467 -73.58945 34498 ft 468 kts 184°
2026-04-22 14:42 41.47211 -73.58817 34818 ft 468 kts 184°
2026-04-22 14:42 41.43951 -73.58689 35124 ft 468 kts 184°
2026-04-22 14:42 41.40696 -73.58559 35408 ft 469 kts 184°
2026-04-22 14:43 41.37433 -73.58429 35690 ft 469 kts 185°
2026-04-22 14:43 41.34221 -73.58683 35955 ft 461 kts 195°
2026-04-22 14:43 41.31128 -73.59671 36217 ft 452 kts 206°
2026-04-22 14:43 41.28271 -73.61320 36463 ft 443 kts 216°
2026-04-22 14:44 41.25722 -73.63536 36692 ft 435 kts 225°
2026-04-22 14:44 41.23512 -73.66227 36921 ft 427 kts 234°
2026-04-22 14:44 41.21627 -73.69239 37145 ft 424 kts 238°
2026-04-22 14:44 41.19771 -73.72298 37373 ft 425 kts 237°
2026-04-22 14:45 41.17911 -73.75348 37597 ft 426 kts 237°
2026-04-22 14:45 41.16044 -73.78407 37804 ft 426 kts 237°
2026-04-22 14:45 41.14181 -73.81467 38040 ft 426 kts 238°
2026-04-22 14:45 41.12337 -73.84544 38172 ft 428 kts 238°
2026-04-22 14:46 41.08633 -73.90807 38189 ft 433 kts 238°
2026-04-22 14:46 41.04909 -73.97084 38187 ft 434 kts 238°
2026-04-22 14:47 41.01163 -74.03351 38177 ft 434 kts 238°
2026-04-22 14:47 40.97412 -74.09614 38183 ft 434 kts 238°
2026-04-22 14:48 40.93654 -74.15859 38188 ft 434 kts 238°
2026-04-22 14:48 40.89896 -74.22115 38190 ft 434 kts 238°
2026-04-22 14:49 40.86131 -74.28364 38190 ft 435 kts 237°
2026-04-22 14:49 40.82380 -74.34574 38192 ft 435 kts 238°
2026-04-22 14:50 40.78609 -74.40823 38192 ft 436 kts 238°
2026-04-22 14:50 40.74822 -74.47075 38198 ft 436 kts 237°
2026-04-22 14:51 40.71025 -74.53322 38197 ft 437 kts 237°
2026-04-22 14:51 40.67222 -74.59565 38164 ft 437 kts 237°
2026-04-22 14:52 40.63414 -74.65816 38175 ft 437 kts 237°
2026-04-22 14:52 40.59600 -74.72055 38165 ft 438 kts 237°
2026-04-22 14:53 40.55660 -74.78191 38172 ft 441 kts 234°
2026-04-22 14:53 40.51448 -74.84076 38159 ft 442 kts 232°
2026-04-22 14:54 40.47185 -74.89906 38159 ft 442 kts 232°
2026-04-22 14:54 40.42970 -74.95788 38156 ft 442 kts 233°
2026-04-22 14:55 40.38792 -75.01696 38146 ft 442 kts 233°
2026-04-22 14:55 40.34613 -75.07599 38145 ft 442 kts 233°
2026-04-22 14:56 40.30422 -75.13479 38145 ft 442 kts 233°
2026-04-22 14:56 40.26215 -75.19358 38147 ft 442 kts 233°
2026-04-22 14:57 40.22012 -75.25228 38156 ft 442 kts 233°
2026-04-22 14:57 40.17803 -75.31096 38152 ft 442 kts 233°
2026-04-22 14:58 40.13588 -75.36952 38149 ft 442 kts 233°
2026-04-22 14:58 40.09369 -75.42805 38147 ft 442 kts 233°
2026-04-22 14:59 40.05145 -75.48653 38136 ft 443 kts 233°
2026-04-22 14:59 40.00950 -75.54459 38134 ft 443 kts 233°
2026-04-22 15:00 39.96727 -75.60304 38130 ft 443 kts 233°
2026-04-22 15:00 39.92493 -75.66146 38130 ft 443 kts 233°
2026-04-22 15:01 39.88431 -75.72153 38118 ft 441 kts 237°
2026-04-22 15:01 39.84613 -75.78387 38122 ft 440 kts 238°
2026-04-22 15:02 39.80824 -75.84636 38127 ft 440 kts 238°
2026-04-22 15:02 39.76966 -75.90836 38129 ft 441 kts 237°
2026-04-22 15:03 39.73069 -75.97003 38124 ft 442 kts 237°
2026-04-22 15:03 39.69169 -76.03182 38137 ft 442 kts 237°
2026-04-22 15:04 39.65266 -76.09353 38143 ft 443 kts 237°
2026-04-22 15:04 39.61356 -76.15537 38142 ft 443 kts 237°
2026-04-22 15:05 39.57426 -76.21691 38143 ft 444 kts 236°
2026-04-22 15:05 39.53441 -76.27804 38142 ft 444 kts 236°
2026-04-22 15:06 39.49446 -76.33905 38136 ft 444 kts 236°
2026-04-22 15:06 39.45421 -76.39988 38148 ft 446 kts 234°
2026-04-22 15:07 39.41101 -76.45787 38150 ft 449 kts 231°
2026-04-22 15:07 39.36623 -76.51432 38148 ft 450 kts 231°
2026-04-22 15:08 39.32177 -76.57111 38148 ft 449 kts 231°
2026-04-22 15:08 39.27783 -76.62845 38141 ft 449 kts 232°
2026-04-22 15:09 39.23401 -76.68584 38139 ft 449 kts 232°
2026-04-22 15:09 39.19001 -76.74315 38140 ft 449 kts 231°
2026-04-22 15:10 39.14594 -76.80033 38160 ft 450 kts 231°
2026-04-22 15:10 39.10173 -76.85744 38153 ft 450 kts 231°
2026-04-22 15:11 39.05743 -76.91447 38146 ft 451 kts 231°
2026-04-22 15:11 39.01315 -76.97153 38145 ft 451 kts 231°
2026-04-22 15:12 38.96882 -77.02859 38147 ft 451 kts 231°
2026-04-22 15:12 38.92438 -77.08562 38127 ft 452 kts 231°
2026-04-22 15:13 38.88025 -77.14230 38123 ft 452 kts 231°
2026-04-22 15:13 38.83581 -77.19929 38099 ft 452 kts 231°
2026-04-22 15:14 38.79134 -77.25626 38097 ft 452 kts 231°
2026-04-22 15:14 38.74679 -77.31315 38097 ft 452 kts 231°
2026-04-22 15:15 38.70149 -77.36924 38126 ft 454 kts 229°
2026-04-22 15:15 38.65433 -77.42328 38123 ft 455 kts 227°
2026-04-22 15:16 38.60681 -77.47681 38130 ft 455 kts 227°
2026-04-22 15:16 38.55962 -77.53071 38119 ft 455 kts 228°
2026-04-22 15:17 38.52063 -77.57569 38117 ft 455 kts 228°
2026-04-22 15:17 38.47366 -77.62982 38117 ft 455 kts 228°
2026-04-22 15:18 38.42664 -77.68382 38116 ft 455 kts 227°
2026-04-22 15:18 38.37952 -77.73770 38122 ft 455 kts 227°
2026-04-22 15:19 38.33242 -77.79146 38120 ft 455 kts 227°
2026-04-22 15:19 38.28525 -77.84522 38131 ft 455 kts 227°
2026-04-22 15:20 38.23802 -77.89893 38132 ft 455 kts 227°
2026-04-22 15:20 38.19089 -77.95254 38124 ft 455 kts 227°
2026-04-22 15:21 38.14355 -78.00626 38120 ft 456 kts 227°
2026-04-22 15:21 38.09627 -78.05977 38123 ft 456 kts 227°
2026-04-22 15:22 38.04890 -78.11322 38122 ft 456 kts 227°
2026-04-22 15:22 38.00111 -78.16633 38123 ft 458 kts 224°
2026-04-22 15:23 37.95061 -78.21587 38133 ft 460 kts 221°
2026-04-22 15:23 37.89871 -78.26345 38126 ft 461 kts 221°
2026-04-22 15:24 37.84710 -78.31148 38127 ft 460 kts 221°
2026-04-22 15:24 37.79628 -78.35992 38122 ft 460 kts 222°
2026-04-22 15:25 37.74518 -78.40877 38122 ft 461 kts 221°
2026-04-22 15:25 37.69393 -78.45745 38133 ft 461 kts 221°
2026-04-22 15:26 37.64263 -78.50601 38145 ft 461 kts 221°
2026-04-22 15:26 37.59123 -78.55455 38139 ft 462 kts 221°
2026-04-22 15:27 37.53973 -78.60306 38147 ft 462 kts 221°
2026-04-22 15:27 37.48824 -78.65158 38146 ft 462 kts 221°
2026-04-22 15:28 37.43675 -78.70007 38154 ft 463 kts 221°
2026-04-22 15:28 37.38513 -78.74852 38160 ft 463 kts 221°
2026-04-22 15:29 37.33344 -78.79686 38160 ft 463 kts 221°
2026-04-22 15:30 37.25598 -78.86918 38173 ft 463 kts 220°
2026-04-22 15:30 37.20430 -78.91735 38177 ft 463 kts 220°
2026-04-22 15:31 37.15258 -78.96552 38177 ft 463 kts 220°
2026-04-22 15:31 37.10095 -79.01354 38182 ft 462 kts 220°
2026-04-22 15:32 37.04928 -79.06151 38182 ft 462 kts 220°
2026-04-22 15:32 36.99756 -79.10936 38182 ft 462 kts 220°
2026-04-22 15:33 36.94585 -79.15714 38180 ft 462 kts 220°
2026-04-22 15:33 36.89449 -79.20461 38187 ft 462 kts 220°
2026-04-22 15:34 36.84282 -79.25227 38198 ft 462 kts 220°
2026-04-22 15:34 36.79108 -79.29970 38209 ft 462 kts 220°
2026-04-22 15:35 36.73934 -79.34717 38215 ft 461 kts 220°
2026-04-22 15:35 36.68767 -79.39455 38218 ft 461 kts 220°
2026-04-22 15:36 36.63599 -79.44178 38220 ft 461 kts 220°
2026-04-22 15:36 36.58430 -79.48897 38214 ft 461 kts 220°
2026-04-22 15:37 36.53263 -79.53614 38210 ft 461 kts 220°
2026-04-22 15:37 36.48094 -79.58319 38213 ft 461 kts 220°
2026-04-22 15:38 36.42924 -79.63016 38219 ft 460 kts 220°
2026-04-22 15:38 36.35171 -79.70049 38223 ft 460 kts 220°
2026-04-22 15:39 36.30000 -79.74730 38223 ft 460 kts 220°
2026-04-22 15:39 36.24833 -79.79401 38226 ft 460 kts 220°
2026-04-22 15:40 36.19664 -79.84060 38235 ft 459 kts 220°
2026-04-22 15:40 36.14498 -79.88709 38241 ft 459 kts 220°
2026-04-22 15:41 36.09337 -79.93350 38236 ft 458 kts 219°
2026-04-22 15:41 36.04040 -79.97759 38237 ft 462 kts 210°
2026-04-22 15:42 35.98102 -80.00854 38233 ft 464 kts 205°
2026-04-22 15:42 35.92110 -80.03808 38233 ft 464 kts 205°
2026-04-22 15:43 35.86119 -80.06758 38243 ft 463 kts 205°
2026-04-22 15:43 35.80177 -80.09678 38254 ft 463 kts 205°
2026-04-22 15:44 35.74205 -80.12612 38252 ft 462 kts 205°
2026-04-22 15:44 35.68237 -80.15545 38259 ft 462 kts 205°
2026-04-22 15:45 35.62273 -80.18475 38257 ft 461 kts 205°
2026-04-22 15:45 35.56309 -80.21396 38291 ft 461 kts 205°
2026-04-22 15:46 35.50350 -80.24304 38298 ft 461 kts 205°
2026-04-22 15:46 35.44391 -80.27209 38303 ft 461 kts 205°
2026-04-22 15:47 35.38435 -80.30112 38303 ft 461 kts 205°
2026-04-22 15:47 35.32479 -80.33015 38301 ft 461 kts 205°
2026-04-22 15:48 35.26519 -80.35917 38285 ft 461 kts 205°
2026-04-22 15:48 35.20559 -80.38802 38274 ft 461 kts 205°
2026-04-22 15:49 35.14602 -80.41677 38282 ft 461 kts 205°
2026-04-22 15:49 35.08644 -80.44552 38275 ft 460 kts 205°
2026-04-22 15:50 35.02731 -80.47414 38272 ft 460 kts 205°
2026-04-22 15:50 34.96773 -80.50289 38277 ft 460 kts 205°
2026-04-22 15:51 34.90815 -80.53154 38281 ft 461 kts 205°
2026-04-22 15:51 34.84851 -80.56014 38283 ft 461 kts 205°
2026-04-22 15:52 34.78886 -80.58873 38284 ft 461 kts 205°
2026-04-22 15:52 34.72926 -80.61737 38287 ft 460 kts 205°
2026-04-22 15:53 34.66969 -80.64590 38286 ft 460 kts 205°
2026-04-22 15:53 34.60960 -80.67277 38289 ft 461 kts 201°
2026-04-22 15:54 34.54817 -80.69520 38290 ft 461 kts 199°
2026-04-22 15:54 34.48650 -80.71658 38306 ft 461 kts 200°
2026-04-22 15:55 34.42515 -80.73886 38308 ft 460 kts 200°
2026-04-22 15:55 34.36403 -80.76181 38313 ft 460 kts 201°
2026-04-22 15:56 34.30297 -80.78468 38311 ft 459 kts 200°
2026-04-22 15:56 34.24182 -80.80721 38311 ft 459 kts 200°
2026-04-22 15:57 34.18073 -80.82963 38302 ft 458 kts 200°
2026-04-22 15:57 34.11979 -80.85213 38313 ft 458 kts 200°
2026-04-22 15:58 34.05928 -80.87445 38324 ft 457 kts 200°
2026-04-22 15:58 33.99839 -80.89676 38333 ft 457 kts 200°
2026-04-22 15:59 33.93764 -80.91904 38331 ft 456 kts 200°
2026-04-22 15:59 33.87696 -80.94127 38331 ft 455 kts 200°
2026-04-22 16:00 33.81637 -80.96346 38323 ft 455 kts 200°
2026-04-22 16:00 33.75587 -80.98557 38316 ft 454 kts 200°
2026-04-22 16:01 33.69546 -81.00767 38321 ft 453 kts 200°
2026-04-22 16:01 33.63508 -81.02966 38318 ft 453 kts 200°
2026-04-22 16:02 33.57477 -81.05153 38317 ft 453 kts 200°
2026-04-22 16:02 33.51445 -81.07344 38312 ft 453 kts 201°
2026-04-22 16:03 33.45423 -81.09531 38308 ft 452 kts 201°
2026-04-22 16:03 33.39393 -81.11711 38310 ft 452 kts 200°
2026-04-22 16:04 33.33371 -81.13881 38318 ft 452 kts 201°
2026-04-22 16:04 33.27351 -81.16051 38324 ft 452 kts 201°
2026-04-22 16:05 33.21371 -81.18209 38326 ft 452 kts 201°
2026-04-22 16:05 33.15357 -81.20383 38315 ft 452 kts 201°
2026-04-22 16:06 33.09342 -81.22543 38314 ft 451 kts 201°
2026-04-22 16:06 33.03329 -81.24698 38316 ft 451 kts 201°
2026-04-22 16:07 32.98298 -81.26497 38317 ft 450 kts 201°
2026-04-22 16:07 32.92307 -81.28646 38318 ft 450 kts 201°
2026-04-22 16:08 32.86323 -81.30789 38322 ft 449 kts 201°
2026-04-22 16:08 32.80338 -81.32927 38323 ft 449 kts 201°
2026-04-22 16:09 32.74401 -81.35036 38339 ft 448 kts 201°
2026-04-22 16:09 32.68427 -81.37161 38336 ft 448 kts 201°
2026-04-22 16:10 32.62463 -81.39280 38337 ft 447 kts 201°
2026-04-22 16:10 32.56510 -81.41399 38339 ft 447 kts 202°
2026-04-22 16:11 32.50557 -81.43510 38335 ft 446 kts 202°
2026-04-22 16:11 32.44608 -81.45617 38336 ft 446 kts 202°
2026-04-22 16:12 32.38669 -81.47715 38323 ft 445 kts 202°
2026-04-22 16:12 32.32729 -81.49806 38324 ft 445 kts 202°
2026-04-22 16:13 32.26796 -81.51899 38321 ft 445 kts 202°
2026-04-22 16:13 32.20864 -81.53987 38328 ft 445 kts 202°
2026-04-22 16:14 32.14936 -81.56075 38328 ft 444 kts 202°
2026-04-22 16:14 32.09013 -81.58163 38326 ft 444 kts 202°
2026-04-22 16:15 32.03092 -81.60235 38329 ft 444 kts 202°
2026-04-22 16:15 31.97173 -81.62297 38327 ft 443 kts 202°
2026-04-22 16:16 31.91262 -81.64362 38327 ft 443 kts 203°
2026-04-22 16:16 31.85360 -81.66429 38330 ft 442 kts 203°
2026-04-22 16:17 31.79458 -81.68493 38332 ft 442 kts 203°
2026-04-22 16:17 31.73562 -81.70543 38327 ft 442 kts 203°
2026-04-22 16:18 31.67672 -81.72586 38352 ft 441 kts 203°
2026-04-22 16:18 31.61790 -81.74625 38360 ft 441 kts 203°
2026-04-22 16:19 31.55917 -81.76660 38362 ft 440 kts 204°
2026-04-22 16:19 31.50046 -81.78693 38363 ft 440 kts 204°
2026-04-22 16:20 31.44175 -81.80727 38357 ft 440 kts 204°
2026-04-22 16:20 31.38311 -81.82757 38351 ft 439 kts 204°
2026-04-22 16:21 31.32450 -81.84782 38338 ft 439 kts 204°
2026-04-22 16:21 31.26622 -81.86784 38331 ft 439 kts 204°
2026-04-22 16:22 31.17829 -81.89813 38314 ft 439 kts 204°
2026-04-22 16:23 31.09028 -81.92829 38308 ft 439 kts 204°
2026-04-22 16:23 31.03163 -81.94836 38307 ft 439 kts 204°
2026-04-22 16:24 30.94361 -81.97855 38310 ft 440 kts 204°
2026-04-22 16:25 30.88493 -81.99871 38318 ft 440 kts 204°
2026-04-22 16:25 30.79683 -82.02873 38335 ft 440 kts 204°
2026-04-22 16:26 30.73811 -82.04873 38340 ft 440 kts 204°
2026-04-22 16:26 30.67937 -82.06871 38361 ft 440 kts 204°
2026-04-22 16:27 30.62063 -82.08846 38367 ft 441 kts 201°
2026-04-22 16:27 30.55882 -82.09775 38394 ft 451 kts 192°
2026-04-22 16:28 30.49621 -82.10355 38419 ft 451 kts 192°
2026-04-22 16:28 30.43363 -82.10938 38414 ft 451 kts 192°
2026-04-22 16:29 30.37095 -82.11528 38403 ft 452 kts 192°
2026-04-22 16:29 30.30830 -82.12108 38383 ft 452 kts 192°
2026-04-22 16:30 30.24564 -82.12687 38372 ft 452 kts 192°
2026-04-22 16:30 30.18263 -82.13030 38363 ft 460 kts 184°
2026-04-22 16:31 30.11856 -82.11879 38353 ft 468 kts 178°
2026-04-22 16:31 30.05450 -82.10570 38367 ft 468 kts 178°
2026-04-22 16:32 29.99035 -82.09277 38352 ft 468 kts 178°
2026-04-22 16:32 29.92616 -82.07985 38337 ft 468 kts 178°
2026-04-22 16:33 29.86194 -82.06698 38322 ft 469 kts 178°
2026-04-22 16:33 29.79765 -82.05410 38321 ft 469 kts 178°
2026-04-22 16:34 29.73335 -82.04117 38313 ft 469 kts 178°
2026-04-22 16:34 29.66898 -82.02830 38317 ft 470 kts 178°
2026-04-22 16:35 29.60457 -82.01543 38312 ft 470 kts 178°
2026-04-22 16:35 29.54010 -82.00254 38309 ft 470 kts 178°
2026-04-22 16:36 29.47564 -81.98969 38300 ft 471 kts 178°
2026-04-22 16:36 29.41116 -81.97681 38301 ft 471 kts 178°
2026-04-22 16:37 29.34656 -81.96393 37883 ft 470 kts 178°
2026-04-22 16:37 29.31438 -81.95754 37212 ft 471 kts 178°
2026-04-22 16:37 29.28202 -81.95114 36514 ft 473 kts 177°
2026-04-22 16:38 29.24947 -81.94473 35817 ft 476 kts 177°
2026-04-22 16:38 29.21675 -81.93832 35100 ft 478 kts 177°
2026-04-22 16:38 29.18429 -81.93196 34392 ft 481 kts 176°
2026-04-22 16:38 29.15074 -81.92539 33568 ft 484 kts 176°
2026-04-22 16:39 29.11793 -81.91894 32786 ft 485 kts 176°
2026-04-22 16:39 29.08470 -81.91236 32139 ft 483 kts 176°
2026-04-22 16:39 29.05174 -81.90578 31631 ft 478 kts 175°
2026-04-22 16:39 29.01915 -81.89929 31134 ft 473 kts 175°
2026-04-22 16:40 28.98687 -81.89285 30629 ft 468 kts 175°
2026-04-22 16:40 28.95491 -81.88649 30075 ft 464 kts 175°
2026-04-22 16:40 28.89185 -81.87412 29264 ft 458 kts 176°
2026-04-22 16:41 28.86043 -81.86802 29316 ft 459 kts 176°
2026-04-22 16:41 28.79740 -81.85579 29310 ft 460 kts 176°
2026-04-22 16:42 28.73431 -81.84339 29310 ft 460 kts 175°
2026-04-22 16:42 28.67113 -81.83081 29306 ft 461 kts 175°
2026-04-22 16:43 28.60798 -81.81829 29297 ft 461 kts 175°
2026-04-22 16:43 28.54470 -81.80551 29289 ft 462 kts 174°
2026-04-22 16:44 28.48181 -81.78894 29280 ft 465 kts 171°
2026-04-22 16:44 28.41919 -81.76977 29280 ft 466 kts 170°
2026-04-22 16:45 28.35650 -81.75091 29251 ft 465 kts 171°
2026-04-22 16:45 28.32531 -81.74193 28718 ft 460 kts 171°
2026-04-22 16:45 28.29441 -81.73316 28169 ft 456 kts 171°
2026-04-22 16:45 28.26376 -81.72453 27643 ft 451 kts 171°
2026-04-22 16:46 28.23345 -81.71601 27133 ft 447 kts 171°
2026-04-22 16:46 28.20342 -81.70754 26622 ft 443 kts 171°
2026-04-22 16:46 28.17358 -81.69908 26137 ft 439 kts 171°
2026-04-22 16:46 28.14407 -81.69072 25659 ft 436 kts 171°
2026-04-22 16:47 28.11477 -81.68240 25216 ft 432 kts 171°
2026-04-22 16:47 28.08569 -81.67456 24777 ft 426 kts 175°
2026-04-22 16:47 28.06635 -81.67183 24504 ft 419 kts 182°
2026-04-22 16:47 28.02811 -81.67416 23957 ft 406 kts 196°
2026-04-22 16:48 28.00091 -81.68144 23484 ft 400 kts 200°
2026-04-22 16:48 27.97404 -81.68920 22987 ft 397 kts 199°
2026-04-22 16:48 27.94735 -81.69685 22523 ft 395 kts 199°
2026-04-22 16:48 27.92080 -81.70444 22057 ft 392 kts 199°
2026-04-22 16:49 27.89446 -81.71200 21603 ft 390 kts 199°
2026-04-22 16:49 27.86827 -81.71955 21149 ft 387 kts 198°
2026-04-22 16:49 27.84227 -81.72706 20705 ft 384 kts 198°
2026-04-22 16:49 27.81648 -81.73454 20264 ft 382 kts 198°
2026-04-22 16:50 27.79084 -81.74194 19801 ft 379 kts 198°
2026-04-22 16:50 27.76531 -81.74924 19352 ft 377 kts 197°
2026-04-22 16:50 27.73998 -81.75646 18879 ft 374 kts 197°
2026-04-22 16:50 27.71471 -81.76324 18418 ft 373 kts 192°
2026-04-22 16:51 27.68885 -81.76544 18238 ft 375 kts 181°
2026-04-22 16:51 27.67156 -81.76495 18271 ft 377 kts 181°
2026-04-22 16:51 27.63678 -81.76413 18260 ft 377 kts 181°
2026-04-22 16:51 27.61051 -81.76316 18263 ft 379 kts 177°
2026-04-22 16:52 27.58454 -81.75770 18259 ft 382 kts 166°
2026-04-22 16:52 27.55964 -81.74703 18265 ft 384 kts 159°
2026-04-22 16:52 27.54302 -81.73899 18256 ft 384 kts 159°
2026-04-22 16:52 27.51847 -81.72707 18257 ft 384 kts 159°
2026-04-22 16:53 27.48592 -81.71130 18255 ft 385 kts 159°
2026-04-22 16:53 27.46928 -81.70325 18262 ft 384 kts 159°
2026-04-22 16:53 27.44472 -81.69139 18262 ft 384 kts 159°
2026-04-22 16:53 27.42016 -81.67951 18263 ft 385 kts 159°
2026-04-22 16:54 27.39554 -81.66763 18261 ft 385 kts 159°
2026-04-22 16:54 27.37105 -81.65583 17985 ft 382 kts 159°
2026-04-22 16:54 27.34675 -81.64412 17461 ft 379 kts 159°
2026-04-22 16:54 27.32259 -81.63247 16943 ft 377 kts 159°
2026-04-22 16:55 27.29856 -81.62091 16448 ft 374 kts 159°
2026-04-22 16:55 27.27476 -81.60947 15975 ft 371 kts 158°
2026-04-22 16:55 27.25110 -81.59810 15523 ft 368 kts 158°
2026-04-22 16:55 27.22767 -81.58683 15086 ft 365 kts 158°
2026-04-22 16:56 27.20447 -81.57564 14644 ft 362 kts 157°
2026-04-22 16:56 27.18142 -81.56454 14213 ft 358 kts 157°
2026-04-22 16:56 27.15858 -81.55359 13754 ft 355 kts 157°
2026-04-22 16:56 27.13594 -81.54278 13271 ft 353 kts 157°
2026-04-22 16:57 27.11345 -81.53202 12779 ft 351 kts 157°
2026-04-22 16:57 27.09108 -81.52129 12303 ft 349 kts 157°
2026-04-22 16:57 27.06896 -81.51066 12054 ft 340 kts 157°
2026-04-22 16:57 27.04762 -81.50041 11925 ft 328 kts 157°
2026-04-22 16:58 27.02699 -81.49052 11798 ft 318 kts 157°
2026-04-22 16:58 27.00683 -81.48084 11523 ft 313 kts 157°
2026-04-22 16:58 26.98695 -81.47107 11191 ft 312 kts 156°
2026-04-22 16:58 26.96719 -81.46115 10884 ft 310 kts 156°
2026-04-22 16:59 26.94750 -81.45125 10527 ft 310 kts 156°
2026-04-22 16:59 26.92788 -81.44138 10198 ft 309 kts 156°
2026-04-22 16:59 26.90831 -81.43155 9854 ft 308 kts 156°
2026-04-22 16:59 26.88883 -81.42175 9529 ft 305 kts 156°
2026-04-22 17:00 26.86952 -81.41206 9209 ft 303 kts 155°
2026-04-22 17:00 26.83092 -81.39436 8581 ft 298 kts 167°
2026-04-22 17:00 26.81043 -81.39203 8310 ft 295 kts 182°
2026-04-22 17:01 26.78996 -81.39272 7978 ft 293 kts 182°
2026-04-22 17:01 26.77006 -81.39339 7688 ft 291 kts 181°
2026-04-22 17:01 26.75009 -81.39408 7395 ft 290 kts 181°
2026-04-22 17:01 26.73014 -81.39474 7186 ft 286 kts 181°
2026-04-22 17:02 26.71001 -81.39539 6841 ft 286 kts 181°
2026-04-22 17:02 26.69048 -81.39672 6561 ft 286 kts 189°
2026-04-22 17:02 26.67164 -81.40333 6261 ft 285 kts 205°
2026-04-22 17:02 26.65522 -81.41573 5933 ft 288 kts 222°
2026-04-22 17:03 26.64238 -81.43286 5598 ft 289 kts 233°
2026-04-22 17:03 26.63059 -81.45114 5245 ft 291 kts 233°
2026-04-22 17:03 26.61872 -81.46944 4949 ft 290 kts 232°
2026-04-22 17:03 26.60687 -81.48768 4702 ft 289 kts 232°
2026-04-22 17:04 26.59508 -81.50580 4424 ft 289 kts 232°
2026-04-22 17:04 26.58330 -81.52388 4185 ft 287 kts 232°
2026-04-22 17:04 26.57161 -81.54183 3987 ft 285 kts 232°
2026-04-22 17:04 26.55984 -81.55988 3998 ft 288 kts 232°
2026-04-22 17:05 26.54807 -81.57791 3998 ft 288 kts 232°
2026-04-22 17:05 26.53626 -81.59600 4000 ft 289 kts 232°
2026-04-22 17:05 26.52441 -81.61415 3992 ft 288 kts 232°
2026-04-22 17:05 26.51263 -81.63222 3991 ft 287 kts 232°
2026-04-22 17:06 26.50101 -81.65046 3997 ft 288 kts 233°
2026-04-22 17:06 26.48939 -81.66869 4006 ft 289 kts 231°
2026-04-22 17:06 26.47756 -81.68669 4005 ft 288 kts 231°
2026-04-22 17:06 26.46550 -81.70443 4000 ft 287 kts 230°
2026-04-22 17:07 26.45327 -81.72200 3992 ft 286 kts 230°
2026-04-22 17:07 26.44097 -81.73936 3992 ft 284 kts 229°
2026-04-22 17:07 26.42860 -81.75669 3928 ft 284 kts 230°
2026-04-22 17:07 26.41627 -81.77394 3623 ft 284 kts 229°
2026-04-22 17:08 26.40397 -81.79113 3373 ft 283 kts 230°
2026-04-22 17:08 26.39200 -81.80780 3116 ft 282 kts 229°
2026-04-22 17:08 26.37977 -81.82485 2982 ft 278 kts 230°
2026-04-22 17:08 26.36798 -81.84137 2987 ft 266 kts 229°
2026-04-22 17:09 26.35707 -81.85776 2990 ft 263 kts 241°
2026-04-22 17:09 26.35260 -81.87676 2988 ft 246 kts 274°
2026-04-22 17:09 26.35630 -81.89485 2994 ft 237 kts 300°
2026-04-22 17:09 26.36523 -81.90998 2997 ft 233 kts 312°
2026-04-22 17:10 26.37534 -81.92403 2989 ft 231 kts 318°
2026-04-22 17:10 26.38769 -81.93497 2990 ft 226 kts 333°
2026-04-22 17:10 26.40150 -81.94296 2994 ft 221 kts 345°
2026-04-22 17:10 26.41602 -81.94394 2984 ft 207 kts 25°
2026-04-22 17:11 26.42623 -81.93384 2988 ft 199 kts 67°
2026-04-22 17:11 26.42984 -81.91905 2990 ft 193 kts 72°
2026-04-22 17:11 26.43688 -81.90676 2879 ft 190 kts 51°
2026-04-22 17:11 26.44473 -81.89538 2678 ft 178 kts 56°
2026-04-22 17:12 26.45165 -81.88479 2497 ft 161 kts 57°
2026-04-22 17:12 26.45799 -81.87508 2266 ft 147 kts 56°
2026-04-22 17:12 26.46366 -81.86639 2101 ft 132 kts 57°
2026-04-22 17:12 26.46882 -81.85850 1865 ft 122 kts 56°
2026-04-22 17:13 26.47376 -81.85086 1682 ft 122 kts 57°
2026-04-22 17:13 26.47878 -81.84319 1601 ft 122 kts 57°
2026-04-22 17:13 26.48385 -81.83560 1445 ft 120 kts 58°
2026-04-22 17:13 26.48873 -81.82811 1279 ft 120 kts 58°
2026-04-22 17:14 26.49354 -81.82050 1115 ft 120 kts 57°
2026-04-22 17:14 26.49847 -81.81292 975 ft 120 kts 56°
2026-04-22 17:14 26.50347 -81.80539 818 ft 121 kts 56°
2026-04-22 17:14 26.50853 -81.79771 602 ft 125 kts 59°
2026-04-22 17:15 26.51196 -81.79249 529 ft 126 kts 61°
2026-04-22 17:15 26.51882 -81.78175 310 ft 128 kts 57°
2026-04-22 17:15 26.52402 -81.77379 163 ft 126 kts 58°
2026-04-22 17:15 26.52907 -81.76610 45 ft 115 kts 57°
2026-04-22 17:16 26.53281 -81.76025 35 ft 56 kts 54°
2026-04-22 17:16 26.53404 -81.75838 36 ft 23 kts 52°
2026-04-22 17:16 26.53472 -81.75696 36 ft 20 kts 75°
2026-04-22 17:16 26.53416 -81.75625 38 ft 15 kts 204°
2026-04-22 17:17 26.53346 -81.75726 39 ft 18 kts 235°
2026-04-22 17:17 26.53269 -81.75838 37 ft 20 kts 232°
2026-04-22 17:17 26.53205 -81.75940 37 ft 17 kts 236°
2026-04-22 17:17 26.53133 -81.76054 35 ft 19 kts 234°
2026-04-22 17:18 26.53047 -81.76030 36 ft 15 kts 144°
2026-04-22 17:18 26.52961 -81.75962 38 ft 15 kts 144°
2026-04-22 17:18 26.52909 -81.75919 38 ft 9 kts 140°
2026-04-22 17:18 26.52905 -81.75861 39 ft 8 kts 59°
2026-04-22 17:19 26.52917 -81.75841 36 ft 0 kts 56°